Hillsdale, MI

11:48 PM EDT on April 24, 2018 (GMT -0400)
Hillsdale Municipal

Weather History for KJYM - April, 2014

Change the Weather History Date:

Wednesday, April 2, 2014

  Actual Average Record
Temperature  
Mean Temperature 43 °F -  
Max Temperature 54 °F 50 °F 81 °F (1963)
Min Temperature 32 °F 32 °F 19 °F (2018)
Degree Days  
Heating Degree Days 22    
Moisture  
Dew Point 26 °F    
Average Humidity 50    
Maximum Humidity 74    
Minimum Humidity 28    
Precipitation  
Precipitation 0.00 in - - ()
Sea Level Pressure  
Sea Level Pressure 30.10 in    
Wind  
Wind Speed 6 mph (North)    
Max Wind Speed 12 mph    
Max Gust Speed 17 mph    
Visibility 10 miles    
Events      
Averages and records for this station are not official NWS values.
T = Trace of Precipitation, MM = Missing Value Source: NWS Daily Summary

Daily Weather History Graph

Daily Weather History Graph

Search for Another Location

Airport or City:

Astronomy

Apr. 02, 2014 Rise Set
Actual Time 7:19 AM EDT 8:05 PM EDT
Civil Twilight 6:51 AM EDT 8:33 PM EDT
Nautical Twilight 6:17 AM EDT 9:06 PM EDT
Astronomical Twilight 5:43 AM EDT 9:41 PM EDT
Moon 9:00 AM EDT (4/2) 11:30 PM EDT (4/2)
Length of Visible Light 13h 42m
Length of Day
12h 45m
Waxing Crescent, 10% of the Moon is Illuminated
Apr 2
Waxing Crescent
Apr 7
First Quarter
Apr 15
Full
Apr 22
Last Quarter
Apr 29
New

Hourly Weather History & Observations

Time (EDT) Temp. Windchill Dew Point Humidity Pressure Visibility Wind Dir Wind Speed Gust Speed Precip Events Conditions
12:15 AM 40.1 °F 33.6 °F 27.5 °F 61% 30.03 in 10.0 mi West 10.4 mph 17.3 mph N/A   Clear
12:34 AM 39.9 °F 32.9 °F 27.5 °F 61% 30.03 in 10.0 mi West 11.5 mph - N/A   Clear
12:55 AM 39.7 °F 32.7 °F 27.7 °F 62% 30.03 in 10.0 mi WNW 11.5 mph - N/A   Clear
1:15 AM 39.7 °F 32.7 °F 27.9 °F 63% 30.03 in 10.0 mi WNW 11.5 mph - N/A   Clear
1:34 AM 39.6 °F 32.5 °F 27.7 °F 62% 30.03 in 10.0 mi WNW 11.5 mph - N/A   Scattered Clouds
1:55 AM 39.7 °F 33.2 °F 27.5 °F 62% 30.03 in 10.0 mi NW 10.4 mph - N/A   Overcast
2:14 AM 39.9 °F 33.9 °F 27.3 °F 61% 30.06 in 10.0 mi West 9.2 mph - N/A   Mostly Cloudy
2:35 AM 39.6 °F 34.0 °F 27.3 °F 62% 30.05 in 10.0 mi West 8.1 mph - N/A   Scattered Clouds
2:54 AM 38.8 °F 33.8 °F 27.7 °F 64% 30.05 in 10.0 mi WNW 6.9 mph - N/A   Scattered Clouds
3:15 AM 38.8 °F 33.8 °F 27.5 °F 64% 30.05 in 10.0 mi NW 6.9 mph - N/A   Mostly Cloudy
3:35 AM 38.7 °F 33.6 °F 27.3 °F 64% 30.04 in 10.0 mi NW 6.9 mph - N/A   Overcast
3:54 AM 38.3 °F 33.9 °F 27.1 °F 64% 30.05 in 10.0 mi NW 5.8 mph - N/A   Mostly Cloudy
4:15 AM 37.8 °F 35.3 °F 27.1 °F 66% 30.05 in 10.0 mi NW 3.5 mph - N/A   Mostly Cloudy
4:34 AM 37.8 °F - 27.0 °F 65% 30.05 in 10.0 mi Calm Calm - N/A   Mostly Cloudy
4:54 AM 37.2 °F - 27.1 °F 67% 30.07 in 10.0 mi Calm Calm - N/A   Mostly Cloudy
5:15 AM 36.3 °F 33.7 °F 27.5 °F 70% 30.07 in 10.0 mi NW 3.5 mph - N/A   Scattered Clouds
5:34 AM 36.0 °F - 27.1 °F 70% 30.08 in 10.0 mi Calm Calm - N/A   Clear
5:55 AM 35.2 °F - 27.0 °F 72% 30.08 in 10.0 mi Calm Calm - N/A   Scattered Clouds
6:15 AM 34.7 °F - 27.1 °F 74% 30.09 in 10.0 mi Calm Calm - N/A   Scattered Clouds
6:34 AM 35.2 °F 32.4 °F 25.9 °F 69% 30.09 in 10.0 mi North 3.5 mph - N/A   Clear
6:55 AM 32.7 °F - 24.4 °F 72% 30.10 in 10.0 mi Calm Calm - N/A   Clear
7:15 AM 33.3 °F - 25.2 °F 72% 30.11 in 10.0 mi Calm Calm - N/A   Clear
8:55 AM 36.0 °F - 26.2 °F 68% 30.13 in 10.0 mi Calm Calm - N/A   Clear
9:14 AM 36.1 °F - 26.8 °F 69% 30.13 in 10.0 mi Calm Calm - N/A   Clear
9:34 AM 36.9 °F - 25.9 °F 64% 30.14 in 10.0 mi Calm Calm - N/A   Clear
9:55 AM 37.0 °F - 26.1 °F 65% 30.14 in 10.0 mi Calm Calm - N/A   Clear
10:14 AM 37.9 °F - 25.7 °F 61% 30.14 in 10.0 mi Calm Calm - N/A   Clear
10:35 AM 39.0 °F - 25.7 °F 59% 30.15 in 10.0 mi Calm Calm - N/A   Clear
10:55 AM 40.5 °F - 26.1 °F 57% 30.15 in 10.0 mi Calm Calm - N/A   Clear
11:14 AM 41.7 °F - 26.6 °F 55% 30.15 in 10.0 mi Calm Calm - N/A   Clear
11:35 AM 43.3 °F 40.7 °F 26.2 °F 51% 30.15 in 10.0 mi WSW 4.6 mph - N/A   Clear
11:55 AM 44.1 °F 42.5 °F 26.4 °F 50% 30.15 in 10.0 mi West 3.5 mph - N/A   Clear
12:14 PM 44.6 °F - 26.6 °F 49% 30.15 in 10.0 mi Calm Calm - N/A   Clear
12:35 PM 46.2 °F - 27.0 °F 47% 30.15 in 10.0 mi Calm Calm - N/A   Clear
12:54 PM 47.1 °F - 27.1 °F 46% 30.15 in 10.0 mi WSW 4.6 mph - N/A   Clear
1:15 PM 48.7 °F - 27.5 °F 44% 30.15 in 10.0 mi Calm Calm - N/A   Clear
1:54 PM 50.2 °F - 27.0 °F 41% 30.14 in 10.0 mi Calm Calm - N/A   Clear
2:15 PM 49.6 °F - 27.0 °F 41% 30.13 in 10.0 mi Calm Calm - N/A   Clear
2:34 PM 50.4 °F - 26.1 °F 39% 30.14 in 10.0 mi Calm Calm - N/A   Clear
2:54 PM 50.5 °F - 24.8 °F 37% 30.14 in 10.0 mi NW 4.6 mph - N/A   Clear
3:15 PM 51.1 °F - 23.9 °F 35% 30.13 in 10.0 mi WNW 3.5 mph - N/A   Clear
3:34 PM 51.6 °F - 24.8 °F 35% 30.12 in 10.0 mi Calm Calm - N/A   Clear
3:54 PM 52.3 °F - 24.6 °F 34% 30.12 in 10.0 mi WNW 3.5 mph - N/A   Clear
4:14 PM 52.3 °F - 23.9 °F 33% 30.12 in 10.0 mi North 6.9 mph - N/A   Clear
4:34 PM 52.2 °F - 22.1 °F 31% 30.11 in 10.0 mi North 3.5 mph - N/A   Clear
4:55 PM 52.5 °F - 24.4 °F 34% 30.10 in 10.0 mi North 5.8 mph - N/A   Clear
5:14 PM 53.1 °F - 24.8 °F 33% 30.09 in 10.0 mi ENE 6.9 mph - N/A   Clear
5:34 PM 53.1 °F - 22.3 °F 30% 30.10 in 10.0 mi Calm Calm - N/A   Clear
5:55 PM 54.0 °F - 21.6 °F 28% 30.10 in 10.0 mi ENE 4.6 mph - N/A   Clear
6:14 PM 53.1 °F - 21.9 °F 30% 30.10 in 10.0 mi East 3.5 mph - N/A   Clear
6:35 PM 53.6 °F - 21.6 °F 29% 30.10 in 10.0 mi ENE 4.6 mph - N/A   Clear
6:55 PM 53.4 °F - 21.6 °F 29% 30.10 in 10.0 mi East 4.6 mph - N/A   Clear
7:14 PM 52.5 °F - 22.5 °F 31% 30.10 in 10.0 mi East 6.9 mph - N/A   Clear
7:35 PM 51.4 °F - 21.6 °F 31% 30.11 in 10.0 mi Calm Calm - N/A   Scattered Clouds
7:55 PM 50.4 °F - 21.2 °F 32% 30.11 in 10.0 mi East 3.5 mph - N/A   Overcast
8:14 PM 50.4 °F - 23.0 °F 34% 30.12 in 10.0 mi Calm Calm - N/A   Overcast
8:35 PM 49.3 °F - 25.0 °F 39% 30.12 in 10.0 mi Calm Calm - N/A   Mostly Cloudy
8:55 PM 49.5 °F - 22.5 °F 35% 30.12 in 10.0 mi Calm Calm - N/A   Mostly Cloudy
9:14 PM 49.1 °F - 26.2 °F 41% 30.11 in 10.0 mi ENE 6.9 mph - N/A   Overcast
9:35 PM 49.6 °F - 24.8 °F 38% 30.11 in 10.0 mi ENE 6.9 mph - N/A   Overcast
9:54 PM 49.5 °F - 25.3 °F 39% 30.12 in 10.0 mi ENE 8.1 mph - N/A   Overcast
10:14 PM 48.9 °F - 25.9 °F 41% 30.12 in 10.0 mi ENE 8.1 mph - N/A   Overcast
10:35 PM 48.7 °F - 25.3 °F 40% 30.12 in 10.0 mi ENE 9.2 mph - N/A   Overcast
10:54 PM 48.4 °F - 25.5 °F 41% 30.11 in 10.0 mi ENE 10.4 mph - N/A   Overcast
11:15 PM 48.0 °F - 25.7 °F 42% 30.12 in 10.0 mi East 9.2 mph - N/A   Overcast
11:35 PM 47.5 °F - 27.3 °F 46% 30.12 in 10.0 mi East 8.1 mph - N/A   Overcast